Location: French Creek State Gamelands
(40.1750°N, 75.7969°W)
Time: 02:54:04
(UTC-05:00)

ISS - All Passes

Search period start: 18 January 2017 00:00
Search period end: 28 January 2017 00:00
Orbit: 400 x 410 km, 51.6° (Epoch: 18 January)

Date Brightness Start Highest point End Pass type
(mag) Time Alt. Az. Time Alt. Az. Time Alt. Az.
18 Jan - 00:20:27 10° W 00:23:18 28° NNW 00:26:10 10° NE night (unlit)
18 Jan - 01:59:20 10° NNW 02:00:37 12° N 02:01:54 10° NNE night (unlit)
18 Jan - 03:36:23 10° NNW 03:38:12 14° NNE 03:40:01 10° NE night (unlit)
18 Jan - 05:12:08 10° NW 05:15:17 48° NNE 05:18:26 10° ESE visible
18 Jan - 06:49:15 10° W 06:51:31 18° SW 06:53:47 10° S visible
18 Jan - 21:52:21 10° S 21:54:44 19° SE 21:57:07 10° E night (unlit)
18 Jan - 23:27:50 10° WSW 23:30:59 45° NNW 23:34:08 10° NE night (unlit)
19 Jan - 01:06:20 10° NW 01:08:06 14° NNW 01:09:52 10° NNE night (unlit)
19 Jan - 02:44:21 10° NNW 02:45:40 12° N 02:47:00 10° NNE night (unlit)
19 Jan - 04:20:05 10° NW 04:22:59 29° NNE 04:25:52 10° E visible
19 Jan - 05:56:30 10° WNW 05:59:29 34° SW 06:02:27 10° SSE visible
19 Jan - 22:35:29 10° SW 22:38:44 85° NNW 22:42:00 10° NE night (unlit)
20 Jan - 00:13:19 10° WNW 00:15:37 17° NNW 00:17:53 10° NNE night (unlit)
20 Jan - 01:52:06 10° NNW 01:53:07 11° N 01:54:09 10° NNE night (unlit)
20 Jan - 03:28:06 10° NNW 03:30:34 20° NNE 03:33:04 10° ENE night (unlit)
20 Jan - 05:04:06 10° WNW 05:07:21 70° SW 05:10:34 10° SE visible
20 Jan - 21:43:25 10° SSW 21:46:33 47° SE 21:49:42 10° ENE night (unlit)
20 Jan - 23:20:27 10° W 23:23:11 24° NNW 23:25:54 10° NNE night (unlit)
21 Jan - 00:59:24 10° NNW 01:00:33 11° N 01:01:42 10° NNE night (unlit)
21 Jan - 02:36:06 10° NNW 02:38:07 15° NNE 02:40:07 10° NE night (unlit)
21 Jan - 04:11:54 10° NW 04:15:06 60° NNE 04:18:20 10° ESE visible
21 Jan - 05:49:28 10° W 05:51:14 14° SW 05:53:01 10° SSW visible
21 Jan - 20:51:46 10° S 20:54:27 24° SE 20:57:08 10° ENE night (unlit)
21 Jan - 22:27:43 10° W 22:30:47 37° NNW 22:33:51 10° NE night (unlit)
22 Jan - 00:06:23 10° NW 00:07:58 13° N 00:09:34 10° NNE night (unlit)
22 Jan - 01:44:04 10° NNW 01:45:34 12° N 01:47:04 10° NE night (unlit)
22 Jan - 03:19:47 10° NW 03:22:48 34° NNE 03:25:48 10° E night (unlit)
22 Jan - 04:56:23 10° WNW 04:59:11 27° SW 05:01:58 10° SSE visible
22 Jan - 20:00:56 10° SSE 20:02:23 12° SE 20:03:51 10° ESE night (unlit)
22 Jan - 21:35:14 10° WSW 21:38:29 67° NW 21:41:43 10° NE night (unlit)
22 Jan - 23:13:20 10° WNW 23:15:27 16° NNW 23:17:33 10° NNE night (unlit)
23 Jan - 00:51:53 10° NNW 00:52:59 11° N 00:54:05 10° NNE night (unlit)
23 Jan - 02:27:44 10° NNW 02:30:23 22° NNE 02:33:02 10° ENE night (unlit)
23 Jan - 04:03:52 10° WNW 04:07:03 54° SW 04:10:13 10° SE night (unlit)
23 Jan - 20:43:01 10° SW 20:46:13 61° SE 20:49:27 10° ENE night (unlit)
23 Jan - 22:20:21 10° WNW 22:22:56 21° NNW 22:25:32 10° NNE night (unlit)
23 Jan - 23:59:18 10° NNW 00:00:22 11° N 00:01:26 10° NNE night (unlit)
24 Jan - 01:35:42 10° NNW 01:37:54 17° NNE 01:40:04 10° ENE night (unlit)
24 Jan - 03:11:34 10° NW 03:14:48 76° NE 03:18:03 10° ESE night (unlit)
24 Jan - 04:49:55 10° WSW 04:50:51 11° SW 04:51:46 10° SW night (unlit)
24 Jan - 19:51:08 10° SSW 19:54:03 30° SE 19:56:57 10° ENE visible
24 Jan - 21:27:31 10° W 21:30:30 31° NNW 21:33:27 10° NE night (unlit)
24 Jan - 23:06:19 10° NW 23:07:45 12° N 23:09:10 10° NNE night (unlit)
25 Jan - 00:43:40 10° NNW 00:45:20 13° NNE 00:47:01 10° NE night (unlit)
25 Jan - 02:19:23 10° NW 02:22:29 40° NNE 02:25:35 10° ESE night (unlit)
25 Jan - 03:56:15 10° W 03:58:46 21° SW 04:01:19 10° S night (unlit)
25 Jan - 18:59:53 10° S 19:01:56 16° SE 19:04:00 10° E visible
25 Jan - 20:34:54 10° WSW 20:38:06 53° NNW 20:41:19 10° NE night (unlit)
25 Jan - 22:13:13 10° NW 22:15:09 15° NNW 22:17:05 10° NNE night (unlit)
25 Jan - 23:51:30 10° NNW 23:52:43 12° N 23:53:56 10° NNE night (unlit)
26 Jan - 01:27:16 10° NNW 01:30:04 26° NNE 01:32:51 10° E night (unlit)
26 Jan - 03:03:32 10° WNW 03:06:38 41° SW 03:09:42 10° SSE night (unlit)
26 Jan - 19:42:32 10° SW 19:45:48 79° SE 19:49:03 10° NE visible
26 Jan - 21:20:10 10° WNW 21:22:35 19° NNW 21:25:01 10° NNE night (unlit)
26 Jan - 22:59:02 10° NNW 23:00:04 11° N 23:01:06 10° NNE night (unlit)
27 Jan - 00:35:11 10° NNW 00:37:33 18° NNE 00:39:55 10° ENE night (unlit)
27 Jan - 02:11:08 10° NW 02:14:23 86° SW 02:17:37 10° SE night (unlit)
27 Jan - 18:50:29 10° SSW 18:53:33 38° SE 18:56:37 10° ENE visible
27 Jan - 20:27:14 10° W 20:30:05 27° NNW 20:32:56 10° NE visible
27 Jan - 22:06:08 10° NNW 22:07:25 12° N 22:08:41 10° NNE night (unlit)
27 Jan - 23:43:07 10° NNW 23:44:58 14° NNE 23:46:50 10° NE night (unlit)
